{"data":{"norad_id":53435,"intl_designator":"2022-097AZ","name":"STARLINK-4542","alt_names":[],"object_type":"PAYLOAD","status":"ACTIVE","operator":null,"country":"US","launch_date":"2022-08-10","launch_site_code":"AFETR","launch_vehicle":null,"mission":null,"orbit_class":"UNKNOWN","rcs_meters":null,"size_class":null,"mass_kg":null,"dimensions":null,"purposes":["comms"],"wikipedia_slug":null,"has_3d_model":false,"image_url":null,"decayed_at":null,"tle_current":{"epoch":"2026-09-19T15:45:00.524448Z","epoch_age_seconds":148342,"freshness":"FRESH","line1":"1 53435U 22097AZ  26262.65625607  .00000030  00000+0  12039-4 0  9996","line2":"2 53435  53.1586 297.4605 0001436  44.8886 315.2232 15.34392162228269","mean_motion":15.34392162,"eccentricity":0.0001436,"inclination_deg":53.1586,"raan_deg":297.4605,"arg_perigee_deg":44.8886,"mean_anomaly_deg":315.2232,"bstar":1.2039e-5,"rev_number":22826,"period_min":93.848237475551,"perigee_km":461.74418849022,"apogee_km":463.7088844979,"semimajor_km":6840.8635364941,"source":"CELESTRAK","updated_at":"2026-09-20T09:00:40.232350Z"}}}